Location: Marcé
(47.5801°N, 0.3280°W)
Time: 06:51:00
(UTC+01:00)

Vanguard 1 Rocket - Pass Details

Date: 02 December 2021
Orbit: 651 x 4224 km, 34.3° (Epoch: 23 January)

Event Time Altitude Azimuth Distance (km) Brightness Sun altitude
Exits shadow 02:30:33 23° 120° (ESE) 4,160 10.7 -57.5°
Drops below altitude 10° 02:40:00 10° 91° (E) 6,127 11.8 -56.3°
Sets 02:47:09 0° 81° (E) 7,731 12.6 -55.3°
